Torna al catalogo

STARLINK-31433

AttivoComunicazioniVLEO
NORAD 59243·PAYLOAD·🇺🇸 United States

Lanciato Mar 16, 2024 da Cape Canaveral Space Force Station

Loading…

Prossimi Passaggi (prossime 24 ore)

TLE

AggiornatoSource: CelesTrak SupGP

Epoca: Sep 14, 2026, 21:03 UTC

1 59243C 24049N   26257.87756944 -.00024140  00000+0 -87444-3 0  2573
2 59243  43.0015 155.0249 0001320 269.3602 350.7721 15.27587854    16

Traccia STARLINK-31433 in tempo reale con AllMySat

Download on the App Store